Weather reports worldwide

Advertisment
Thorney Island, United Kingdom (3872): temperature & dewpoint: 11.08.2018 13:00:00 - 17.08.2018 13:00:00 (BST)Thorney Island, United Kingdom (3872): temperature -20cm & temperature -100cm: 11.08.2018 13:00:00 - 17.08.2018 13:00:00 (BST)Thorney Island, United Kingdom (3872): wind speed & gusts: 11.08.2018 13:00:00 - 17.08.2018 13:00:00 (BST)Thorney Island, United Kingdom (3872): wind direction: 11.08.2018 13:00:00 - 17.08.2018 13:00:00 (BST)Thorney Island, United Kingdom (3872): reduced air pressure: 11.08.2018 13:00:00 - 17.08.2018 13:00:00 (BST)Thorney Island, United Kingdom (3872): visibility: 11.08.2018 13:00:00 - 17.08.2018 13:00:00 (BST)Thorney Island, United Kingdom (3872): precipitation: 11.08.2018 13:00:00 - 17.08.2018 13:00:00 (BST)
Date & Time tt [°C] td [°C] tt -20cm [°C] tt -100cm [°C] ff [km/h] ff [kn] fx [km/h] fx [kn] dd ppp [hPa] vv [km] rr [mm]
17.08.2018 13:00:00 19,4 10,4 - - 21 11 - - WSW 1021,4 45 0,0
17.08.2018 12:00:00 19,4 12,5 - - 9 5 - - W 1021,4 27 0,0
17.08.2018 11:00:00 18,4 12,4 - - 11 6 - - W 1021,4 23 0,0
17.08.2018 10:00:00 17,3 12,5 18,4 17,9 13 7 - - NW 1021,1 30 0,0
17.08.2018 09:00:00 15,6 12,8 - - 5 3 - - W 1020,6 23 0,0
17.08.2018 08:00:00 14,0 12,5 - - 5 3 - - WNW 1020,2 19 0,0
17.08.2018 07:00:00 11,0 10,5 - - 4 2 - - NW 1019,6 30 0,0
17.08.2018 06:00:00 10,9 10,1 - - 8 4 - - WNW 1018,9 21 0,0
17.08.2018 05:00:00 11,2 10,3 - - 5 3 - - W 1018,4 20 0,0
17.08.2018 04:00:00 11,0 10,3 - - 5 3 - - W 1018,2 27 0,0
17.08.2018 03:00:00 11,2 10,2 - - 2 1 - - ESE 1018,0 29 0,0
17.08.2018 02:00:00 11,8 10,0 - - 9 5 - - NW 1017,6 40 0,0
17.08.2018 01:00:00 13,1 10,3 - - 9 5 - - N 1017,6 30 0,0
17.08.2018 00:00:00 13,4 10,0 - - 11 6 - - NNW 1017,4 40 0,0
16.08.2018 23:00:00 14,1 9,7 - - 13 7 - - NW 1016,9 50 0,0
16.08.2018 22:00:00 15,5 11,3 - - 15 8 - - NW 1016,3 40 0,0
16.08.2018 21:00:00 16,8 14,4 - - 15 8 - - W 1015,8 17 0,0
16.08.2018 20:00:00 17,0 14,1 - - 16 9 - - W 1015,6 22 0,0
16.08.2018 19:00:00 17,9 14,4 - - 21 11 - - W 1015,1 26 0,0
16.08.2018 18:00:00 17,8 13,9 - - 21 11 - - WSW 1015,2 27 0,0
16.08.2018 17:00:00 17,9 14,2 - - 13 7 - - SW 1014,9 18 0,0
16.08.2018 16:00:00 17,6 13,8 - - 11 6 - - WSW 1014,9 24 0,0
16.08.2018 15:00:00 16,1 14,4 - - 8 4 - - W 1014,8 24 0,0
16.08.2018 14:00:00 15,3 14,7 - - 5 3 - - WNW 1014,6 26 1,8
16.08.2018 13:00:00 15,0 14,1 - - 13 7 - - NW 1014,9 13 3,2
16.08.2018 12:00:00 16,4 15,4 - - 21 11 - - W 1014,0 9 3,6
16.08.2018 11:00:00 16,8 16,0 - - 31 17 46 25 W 1013,7 2,7 2,6
16.08.2018 10:00:00 17,7 17,2 19,0 17,9 31 17 - - WSW 1013,5 3,1 0,4
16.08.2018 09:00:00 17,5 16,6 - - 29 16 48 26 SW 1013,7 7 0,0
16.08.2018 08:00:00 18,5 15,9 - - 35 19 50 27 SW 1013,7 17 0,0
16.08.2018 07:00:00 18,5 15,9 - - 31 17 - - WSW 1014,0 35 0,0
16.08.2018 06:00:00 18,3 15,6 - - 28 15 50 27 WSW 1014,2 30 0,0
16.08.2018 05:00:00 18,3 15,4 - - 29 16 - - WSW 1014,4 45 0,0
16.08.2018 04:00:00 18,2 15,7 - - 29 16 - - WSW 1015,0 35 0,0
16.08.2018 03:00:00 18,1 16,1 - - 28 15 - - WSW 1015,2 29 0,0
16.08.2018 02:00:00 18,1 15,8 - - 22 12 - - WSW 1015,7 30 0,0
16.08.2018 01:00:00 18,4 16,0 - - 24 13 - - W 1016,3 30 0,0
16.08.2018 00:00:00 18,1 16,3 - - 24 13 - - WSW 1016,8 24 0,0
15.08.2018 23:00:00 17,8 16,0 - - 21 11 - - WSW 1017,0 29 0,0
15.08.2018 22:00:00 17,6 15,7 - - 24 13 - - WSW 1017,4 25 0,0
15.08.2018 21:00:00 17,6 15,4 - - 24 13 - - WSW 1017,5 30 0,0
15.08.2018 20:00:00 18,5 14,8 - - 22 12 - - WSW 1017,3 35 0,0
15.08.2018 19:00:00 19,7 15,1 - - 28 15 - - WSW 1017,4 45 0,0
15.08.2018 18:00:00 19,9 14,9 - - 28 15 - - W 1017,8 40 0,0
15.08.2018 17:00:00 21,5 16,0 - - 28 15 - - WSW 1018,2 40 0,0
15.08.2018 16:00:00 21,1 14,0 - - 28 15 - - WSW 1018,5 50 0,0
15.08.2018 15:00:00 20,5 15,1 - - 26 14 - - W 1018,9 35 0,0
15.08.2018 14:00:00 21,1 15,6 - - 26 14 - - W 1019,2 29 0,0
15.08.2018 13:00:00 20,7 15,1 - - 24 13 - - W 1019,2 40 0,0
15.08.2018 12:00:00 20,8 16,1 - - 24 13 - - WSW 1019,4 35 0,0
15.08.2018 11:00:00 20,1 15,5 - - 22 12 - - W 1019,5 35 0,0
15.08.2018 10:00:00 19,5 15,3 19,0 17,9 16 9 - - WSW 1019,5 40 0,0
15.08.2018 09:00:00 18,6 14,6 - - 16 9 - - W 1019,5 40 0,0
15.08.2018 08:00:00 17,8 13,7 - - 13 7 - - W 1019,3 40 0,0
15.08.2018 07:00:00 17,3 13,9 - - 15 8 - - WNW 1019,1 40 0,0
15.08.2018 06:00:00 17,3 14,1 - - 18 10 - - W 1018,7 30 0,0
15.08.2018 05:00:00 17,5 14,0 - - 22 12 - - W 1018,8 22 0,0
15.08.2018 04:00:00 17,5 14,4 - - 16 9 - - WNW 1018,8 40 0,0
15.08.2018 03:00:00 17,4 14,3 - - 13 7 - - NW 1018,9 40 0,0
15.08.2018 02:00:00 17,2 14,2 - - 18 10 - - W 1019,0 35 0,0
15.08.2018 01:00:00 17,7 14,7 - - 9 5 - - WNW 1019,3 30 0,0
15.08.2018 00:00:00 16,4 13,7 - - 5 3 - - NW 1019,3 30 0,0
14.08.2018 23:00:00 17,7 14,5 - - 13 7 - - NW 1019,0 30 0,0
14.08.2018 22:00:00 18,6 16,2 - - 15 8 - - W 1018,6 26 0,0
14.08.2018 21:00:00 19,1 16,1 - - 21 11 - - W 1018,4 26 0,0
14.08.2018 20:00:00 20,3 16,4 - - 21 11 - - W 1017,8 45 0,0
14.08.2018 19:00:00 21,3 16,9 - - 26 14 - - W 1017,5 40 0,0
14.08.2018 18:00:00 21,5 17,0 - - 26 14 - - WSW 1017,7 35 0,0
14.08.2018 17:00:00 21,2 16,8 - - 26 14 - - W 1017,8 40 0,0
14.08.2018 16:00:00 21,2 16,7 - - 24 13 - - WSW 1017,9 45 0,0
14.08.2018 15:00:00 22,1 16,3 - - 24 13 - - W 1017,9 45 0,0
14.08.2018 14:00:00 21,7 16,7 - - 22 12 - - W 1017,8 40 0,0
14.08.2018 13:00:00 22,1 15,1 - - 18 10 - - WSW 1017,7 30 0,0
14.08.2018 12:00:00 21,8 14,1 - - 21 11 - - WNW 1017,6 50 0,0
14.08.2018 11:00:00 19,8 14,7 - - 16 9 - - W 1017,5 50 0,0
14.08.2018 10:00:00 18,9 15,1 18,9 17,9 9 5 - - W 1017,0 30 0,0
14.08.2018 09:00:00 18,2 15,4 - - 11 6 - - W 1016,9 40 0,0
14.08.2018 08:00:00 16,2 14,7 - - 8 4 - - NW 1016,6 30 0,0
14.08.2018 07:00:00 15,0 13,3 - - 5 3 - - NW 1016,2 40 0,0
14.08.2018 06:00:00 13,8 12,7 - - 5 3 - - WNW 1015,7 30 0,0
14.08.2018 05:00:00 14,3 12,7 - - 11 6 - - NW 1015,0 45 0,0
14.08.2018 04:00:00 14,8 12,8 - - 15 8 - - NW 1014,7 50 0,0
14.08.2018 03:00:00 15,5 13,2 - - 15 8 - - NW 1014,3 45 0,0
14.08.2018 02:00:00 16,1 13,8 - - 9 5 - - NW 1013,8 45 0,0
14.08.2018 01:00:00 17,3 15,0 - - 16 9 - - WNW 1013,2 50 0,0
14.08.2018 00:00:00 17,9 15,5 - - 13 7 - - WNW 1012,4 50 0,0
13.08.2018 23:00:00 18,9 15,7 - - 13 7 - - NW 1012,0 50 0,0
13.08.2018 22:00:00 19,7 15,5 - - 16 9 - - NNW 1011,4 50 0,0
13.08.2018 21:00:00 20,0 15,7 - - 16 9 - - WNW 1010,7 50 0,0
13.08.2018 20:00:00 20,0 16,9 - - 18 10 - - W 1009,9 27 0,0
13.08.2018 19:00:00 21,3 17,5 - - 16 9 - - W 1009,2 35 0,0
13.08.2018 18:00:00 20,7 16,4 - - 26 14 - - W 1009,0 35 0,0
13.08.2018 17:00:00 21,8 16,4 - - 26 14 - - W 1008,7 35 0,0
13.08.2018 16:00:00 21,7 16,2 - - 29 16 - - WSW 1008,5 45 0,0
13.08.2018 15:00:00 22,8 17,2 - - 24 13 - - W 1008,4 45 0,0
13.08.2018 14:00:00 22,0 16,0 - - 18 10 - - W 1008,4 40 0,0
13.08.2018 13:00:00 21,2 15,5 - - 22 12 - - W 1008,2 40 0,0
13.08.2018 12:00:00 20,4 16,1 - - 16 9 - - W 1007,9 30 0,0
13.08.2018 11:00:00 20,0 16,6 - - 16 9 - - WNW 1007,6 45 0,0
13.08.2018 10:00:00 18,9 16,5 18,4 17,9 15 8 - - WNW 1007,3 35 0,0
13.08.2018 09:00:00 17,6 15,9 - - 11 6 - - WNW 1007,0 40 0,0
13.08.2018 08:00:00 16,5 15,7 - - 9 5 - - NW 1006,5 28 0,0
13.08.2018 07:00:00 16,0 15,3 - - 9 5 - - NW 1006,3 30 0,0
13.08.2018 06:00:00 16,1 15,5 - - 8 4 - - NW 1005,7 23 0,0
13.08.2018 05:00:00 15,8 15,1 - - 11 6 - - W 1005,5 30 0,0
13.08.2018 04:00:00 16,0 15,1 - - 13 7 - - W 1005,6 50 0,6
13.08.2018 03:00:00 16,6 15,3 - - 18 10 - - W 1005,8 27 0,2
13.08.2018 02:00:00 17,1 15,7 - - 15 8 - - WSW 1006,2 40 0,0
13.08.2018 01:00:00 16,8 15,7 - - 8 4 - - W 1006,4 21 0,0
13.08.2018 00:00:00 17,6 16,3 - - 11 6 - - W 1006,9 21 0,0
12.08.2018 23:00:00 17,5 16,5 - - 8 4 - - SW 1006,9 19 0,0
12.08.2018 22:00:00 17,2 15,9 - - 0 0 - - N 1007,2 22 0,0
12.08.2018 21:00:00 17,6 16,0 - - 16 9 - - WSW 1007,2 30 0,0
12.08.2018 20:00:00 16,5 15,8 - - 8 4 - - SSE 1007,6 30 0,0
12.08.2018 19:00:00 15,0 14,4 - - 15 8 - - SSW 1008,1 4,0 1,2
12.08.2018 18:00:00 17,6 12,4 - - 31 17 - - SSW 1008,6 30 0,0
12.08.2018 17:00:00 18,9 14,6 - - 24 13 - - SSW 1008,9 40 0,0
12.08.2018 16:00:00 18,5 15,1 - - 24 13 - - S 1009,4 40 0,2
12.08.2018 15:00:00 17,5 13,3 - - 22 12 - - SSW 1010,1 40 0,0
12.08.2018 14:00:00 17,0 14,8 - - 24 13 - - S 1010,6 11 1,2
12.08.2018 13:00:00 17,6 14,0 - - 24 13 - - SW 1011,1 19 0,4
12.08.2018 12:00:00 17,1 12,7 - - 29 16 - - SW 1011,8 13 0,4
12.08.2018 11:00:00 18,8 16,1 - - 28 15 - - SSW 1011,8 15 0,0
12.08.2018 10:00:00 19,2 16,0 18,2 18,0 26 14 - - SSW 1011,5 40 0,0
12.08.2018 09:00:00 19,2 15,5 - - 22 12 - - SSW 1011,9 50 0,0
12.08.2018 08:00:00 18,7 15,2 - - 21 11 - - SW 1012,4 35 0,0
12.08.2018 07:00:00 18,7 15,3 - - 24 13 - - SW 1013,0 35 0,0
12.08.2018 06:00:00 18,3 15,1 - - 21 11 - - SSW 1013,0 50 0,0
12.08.2018 05:00:00 18,7 15,0 - - 22 12 - - SW 1013,4 45 0,0
12.08.2018 04:00:00 19,1 15,9 - - 24 13 - - SW 1014,2 45 0,0
12.08.2018 03:00:00 18,9 16,4 - - 21 11 - - SW 1015,1 30 0,0
12.08.2018 02:00:00 18,7 16,2 - - 24 13 - - SSW 1015,8 28 0,0
12.08.2018 01:00:00 18,6 16,0 - - 24 13 - - S 1016,4 35 0,0
12.08.2018 00:00:00 18,4 15,8 - - 21 11 - - S 1017,3 35 0,0
11.08.2018 23:00:00 18,1 16,1 - - 22 12 - - S 1018,1 45 0,0
11.08.2018 22:00:00 18,0 15,8 - - 18 10 - - S 1018,8 35 0,0
11.08.2018 21:00:00 17,7 15,7 - - 16 9 - - S 1019,2 45 0,0
11.08.2018 20:00:00 18,0 15,0 - - 13 7 - - S 1019,6 30 0,0
11.08.2018 19:00:00 18,2 15,0 - - 21 11 - - SW 1020,2 30 0,0
11.08.2018 18:00:00 18,0 15,3 - - 21 11 - - SW 1020,8 18 0,0
11.08.2018 17:00:00 18,4 15,4 - - 26 14 - - SW 1021,1 45 0,0
11.08.2018 16:00:00 17,6 16,3 - - 21 11 - - SSW 1021,6 35 0,2
11.08.2018 15:00:00 17,8 14,5 - - 16 9 - - S 1022,3 45 0,0
11.08.2018 14:00:00 16,9 13,9 - - 22 12 - - SSW 1022,9 35 0,0
11.08.2018 13:00:00 18,2 11,9 - - 16 9 - - S 1023,1 45 0,0

tt = temperature
td = dewpoint
tt -20cm = temperature -20cm
tt -100cm = temperature -100cm
ff = wind speed
fx = gusts
dd = wind direction
ppp = reduced air pressure
vv = visibility
rr = precipitation

Next stations